Regional Weather Roundup
Issued by NWS Northern Indiana

Home | Current Version | Previous Version | Text Only | Print | Product List | Glossary On
Versions: 1 2 3 4 5 6 7 8 9 10 11 12 13 14 15 16 17 18 19 20 21 22 23 24 25 26 27 28 29 30 31 32 33 34 35 36 37 38 39 40 41 42 43 44 45 46 47 48 49 50
000
ASUS43 KIWX 181610
RWRIWX

KIWX WEATHER ROUNDUP
NATIONAL WEATHER SERVICE NORTHERN INDIANA
1200 PM EDT SAT APR 18 2015

NOTE: "FAIR" INDICATES FEW OR NO CLOUDS BELOW 12,000 FEET WITH NO
SIGNIFICANT WEATHER AND/OR OBSTRUCTIONS TO VISIBILITY.

* THESE STATIONS ARE NOT UNDER NWS QUALITY CONTROL. THEY ALSO MAY NOT
  REPORT WEATHER SUCH AS PRECIPITATION OR FOG.

INZ001>027-181700-
NORTHERN INDIANA

CITY           SKY/WX    TMP DP  RH WIND       PRES   REMARKS
GARY*          CLOUDY    54  37  54 N14       30.09S HAZE
VALPARAISO     MOSUNNY   73  49  42 N6        30.05S
MICHIGAN CITY* MOSUNNY   68  41  37 NW7       30.05S
KNOX*          MOSUNNY   72  28  20 CALM      30.03F
SOUTH BEND     SUNNY     75  48  38 NE7       30.05S
ELKHART*       MOSUNNY   73  45  35 N6        30.05S
GOSHEN         SUNNY     74  52  46 NE12      30.04S
MONTICELLO*    PTSUNNY   73  53  50 CALM      30.04S
LOGANSPORT*    PTSUNNY   72  48  43 CALM      30.06S
ROCHESTER*     MOSUNNY   73  52  46 SW3       30.05F
WARSAW*        SUNNY     73  52  46 W3        30.04F
ANGOLA*        SUNNY     73  52  46 N8        30.05S
FORT WAYNE     MOSUNNY   75  51  43 NW8       30.05F
HUNTINGTON*    MOSUNNY   74  46  36 W5        30.04F
PERU/GRISSOM   MOSUNNY   74  49  42 CALM      30.04S
MARION*        MOSUNNY   72  44  36 CALM      30.06S

$$
INZ028>050-181700-
CENTRAL INDIANA

CITY           SKY/WX    TMP DP  RH WIND       PRES   REMARKS
LAFAYETTE      PTSUNNY   72  50  45 CALM      30.05R
KOKOMO*        MOSUNNY   73  48  40 CALM      30.05S
MUNCIE*        MOSUNNY   74  45  35 CALM      30.05F
INDIANAPOLIS   CLOUDY    70  45  40 SE6       30.05R

$$
MIZ043>046-050>051-056>058-064>065-071>073-077>080-181700-
SOUTHWEST LOWER MICHIGAN

CITY           SKY/WX    TMP DP  RH WIND       PRES   REMARKS
BATTLE CREEK   SUNNY     71  39  31 NE13      30.08R
BENTON HARBOR  SUNNY     70  47  43 NE9       30.05S
COLDWATER*     SUNNY     70  48  45 NE10      30.07R
HILLSDALE*     SUNNY     71  47  41 NE10      30.07S
HOLLAND        SUNNY     71  37  28 NE10G20   30.08R
GRAND RAPIDS   PTSUNNY   71  33  24 NE14      30.08S
KALAMAZOO      SUNNY     72  42  34 NE12      30.07S
STURGIS*       SUNNY     72  50  46 NE12      30.05S
THREE RIVERS*  FAIR      70  48  45 NE8       30.06F

$$
OHZ001>008-015>018-024>025-181700-
NORTHWEST OHIO

CITY           SKY/WX    TMP DP  RH WIND       PRES   REMARKS
WAUSEON*       FAIR      77  48  36 N8        30.05S
DEFIANCE       SUNNY     77  49  37 NW7       30.04F
FINDLAY        SUNNY     75  48  38 N7        30.05S
TOLEDO EXPRESS SUNNY     75  49  39 N8        30.05R
TOLEDO METCALF SUNNY     76  47  35 NE10G17   30.06R
LIMA           MOSUNNY   75  49  39 N8        30.06F

$$
AND FOR LAKE MICHIGAN COASTAL AND OPEN LAKE BUOY OBSERVATIONS

STATION/POSITION TEMP    WIND        PRES    VSBY  WAVE
                 AIR SEA DIR/SP/G                  HT/PER
                 (F)     (DEG/KT/KT) (MB)    (MI)  (FT/S)
CALUMET HARBOR    47     330/ 13/ 19   N/A
MICHIGAN CITY     48     350/  8/  9   N/A
BURNS HARBOR      46     340/  7/ 10 1019.0S
SAINT JOSEPH      50     340/  9/ 10 1018.3S
MICHIGAN CITY     44 47                N/A           0
SAINT JOSEPH CG                      1017.5      6   1

$$
&&



USA.gov is the U.S. government's official web portal to all federal, state and local government web resources and services.